N5TM-4 Weather Reports


Display with metric or nautical units.
time (UTC)temp
F
wind
direction
speed
MPH
gust
MPH
rain 1hr
in
rain 24hr
in
rain mn
in
humidity
%
barometer
mb
20260906014535 82 155 1.0 3.0 0.00 0.84 0.84 83 1011.5
20260906014035 82 150 0.0 2.0 0.00 0.84 0.84 83 1011.5
20260906013535 82 150 0.0 2.0 0.00 0.84 0.84 82 1011.5
20260906013035 82 150 0.0 3.0 0.00 0.84 0.84 82 1011.5
20260906012534 82 150 1.0 5.0 0.00 0.84 0.84 82 1011.5
20260906012034 82 150 1.0 5.0 0.00 0.84 0.84 82 1011.4
20260906011534 82 55 1.0 3.0 0.00 0.84 0.84 82 1011.3
20260906011033 82 53 1.0 3.0 0.00 0.84 0.84 82 1011.3
20260906010536 82 49 0.0 3.0 0.00 0.84 0.84 82 1011.3
20260906010035 82 49 1.0 3.0 0.00 0.84 0.84 83 1011.3
20260906005533 82 41 1.0 2.0 0.00 0.84 0.84 84 1011.3
20260906005034 83 20 0.0 2.0 0.00 0.84 0.84 84 1011.3
20260906004536 83 20 0.0 2.0 0.00 0.84 0.84 84 1011.4
20260906004033 83 20 0.0 3.0 0.00 0.84 0.84 85 1011.3
20260906003533 83 17 0.0 3.0 0.00 0.84 0.84 85 1011.3
20260906003033 83 123 0.0 2.0 0.00 0.84 0.84 85 1011.3
20260906002532 83 123 0.0 2.0 0.00 0.84 0.84 85 1011.4
20260906002033 83 123 0.0 2.0 0.00 0.84 0.84 85 1011.5
20260906001541 83 123 0.0 2.0 0.00 0.84 0.84 85 1011.5
20260906001032 84 123 0.0 1.0 0.00 0.84 0.84 85 1011.5
20260906000532 84 123 0.0 1.0 0.00 0.84 0.84 85 1011.5
20260906000032 84 123 0.0 2.0 0.00 0.84 0.84 85 1011.5
20260905235534 84 123 0.0 2.0 0.00 0.84 0.84 85 1011.5
20260905235033 83 123 0.0 2.0 0.00 0.84 0.84 84 1011.5
20260905234533 84 123 0.0 1.0 0.00 0.84 0.84 85 1011.7
20260905234031 83 123 0.0 2.0 0.00 0.84 0.84 84 1011.8
20260905233531 83 123 0.0 2.0 0.00 0.84 0.84 84 1011.8
20260905233035 84 123 0.0 2.0 0.00 0.84 0.84 83 1011.9
20260905232532 83 123 0.0 2.0 0.00 0.84 0.84 82 1011.9
20260905232034 83 123 0.0 2.0 0.00 0.84 0.84 83 1011.8
20260905231535 83 123 1.0 2.0 0.00 0.84 0.84 84 1011.7
20260905231032 83 123 1.0 2.0 0.00 0.84 0.84 84 1011.7
20260905230530 82 123 0.0 1.0 0.00 0.84 0.84 86 1011.6
20260905230030 82 123 0.0 2.0 0.00 0.84 0.84 87 1011.5
20260905225530 82 123 0.0 3.0 0.00 0.84 0.84 86 1011.6
20260905225031 82 123 1.0 3.0 0.00 0.84 0.84 86 1011.5
20260905224529 82 123 1.0 3.0 0.00 0.84 0.84 86 1011.4
20260905224037 81 123 0.0 4.0 0.00 0.84 0.84 87 1011.3
20260905223529 81 123 0.0 4.0 0.00 0.84 0.84 86 1011.4
20260905223029 81 123 1.0 3.0 0.01 0.84 0.84 86 1011.3
20260905222529 81 122 2.0 3.0 0.01 0.84 0.84 85 1011.4
20260905222032 81 129 1.0 3.0 0.02 0.84 0.84 86 1011.4
20260905221529 80 129 0.0 3.0 0.04 0.84 0.84 86 1011.3
20260905221029 80 129 1.0 4.0 0.07 0.84 0.84 85 1011.4
20260905220528 80 129 1.0 4.0 0.13 0.84 0.84 85 1011.4
20260905220030 79 129 1.0 4.0 0.20 0.84 0.84 85 1011.5
20260905215529 79 127 1.0 4.0 0.43 0.84 0.84 85 1011.3
20260905215028 79 123 1.0 7.0 0.73 0.84 0.84 85 1011.3
20260905214527 78 184 2.0 7.0 0.84 0.84 0.84 86 1011.4
20260905214026 78 163 2.0 6.0 0.84 0.84 0.84 87 1011.4
20260905213526 78 147 2.0 7.0 0.84 0.84 0.84 87 1011.6
20260905213025 78 132 3.0 7.0 0.83 0.83 0.83 87 1011.6
20260905212525 78 131 3.0 10.0 0.83 0.83 0.83 87 1011.8
20260905212025 78 160 3.0 12.0 0.82 0.82 0.82 86 1012.0
20260905211524 78 129 6.0 12.0 0.80 0.80 0.80 84 1012.3
20260905211025 79 117 6.0 13.0 0.76 0.76 0.76 83 1012.4
20260905210525 80 103 5.0 10.0 0.70 0.70 0.70 79 1012.6
20260905210025 82 68 2.0 13.0 0.63 0.63 0.63 76 1012.7
20260905205524 86 23 6.0 13.0 0.37 0.37 0.37 70 1012.7
20260905205024 90 55 3.0 13.0 0.06 0.06 0.06 70 1012.5
20260905204525 90 253 3.0 13.0 0.00 0.00 0.00 63 1012.1
20260905204022 91 53 4.0 11.0 0.00 0.00 0.00 60 1011.8
20260905203522 93 135 3.0 11.0 0.00 0.00 0.00 59 1011.7
20260905203023 94 155 4.0 10.0 0.00 0.00 0.00 57 1011.6
20260905202524 94 224 2.0 8.0 0.00 0.00 0.00 56 1011.6
20260905202021 94 192 2.0 8.0 0.00 0.00 0.00 55 1011.6
20260905201522 95 350 1.0 6.0 0.00 0.00 0.00 54 1011.7
20260905201020 94 186 1.0 6.0 0.00 0.00 0.00 54 1011.7
20260905200526 95 165 2.0 6.0 0.00 0.00 0.00 52 1011.7
20260905200020 95 166 4.0 9.0 0.00 0.00 0.00 52 1011.8
20260905195519 95 111 3.0 11.0 0.00 0.00 0.00 52 1011.8
20260905195019 95 175 4.0 11.0 0.00 0.00 0.00 52 1011.9
20260905194518 96 169 5.0 9.0 0.00 0.00 0.00 49 1012.1
20260905194018 95 149 3.0 8.0 0.00 0.00 0.00 51 1012.0
20260905193517 96 130 4.0 10.0 0.00 0.00 0.00 49 1012.0
20260905193017 98 175 4.0 10.0 0.00 0.00 0.00 47 1012.1
20260905192520 98 162 2.0 7.0 0.00 0.00 0.00 45 1012.2
20260905192015 99 137 1.0 8.0 0.00 0.00 0.00 44 1012.2
20260905191515 98 159 1.0 8.0 0.00 0.00 0.00 46 1012.3
20260905191015 98 158 3.0 8.0 0.00 0.00 0.00 46 1012.3
20260905190517 98 162 1.0 6.0 0.00 0.00 0.00 45 1012.5
20260905190026 98 159 1.0 5.0 0.00 0.00 0.00 46 1012.5
20260905185513 97 20 1.0 5.0 0.00 0.01 0.00 48 1012.5
20260905185015 96 157 1.0 5.0 0.00 0.01 0.00 48 1012.6
20260905184513 97 27 1.0 4.0 0.00 0.01 0.00 47 1012.6
20260905184012 96 106 2.0 4.0 0.00 0.01 0.00 47 1012.7
20260905183512 96 62 1.0 4.0 0.00 0.01 0.00 49 1012.8
20260905183015 96 22 1.0 4.0 0.00 0.01 0.00 50 1012.8
20260905182512 96 5 1.0 3.0 0.00 0.01 0.00 52 1012.9
20260905182012 96 36 1.0 5.0 0.00 0.01 0.00 55 1013.1
20260905181513 96 34 2.0 5.0 0.00 0.01 0.00 54 1013.2
20260905181011 97 355 1.0 4.0 0.00 0.01 0.00 56 1013.5
20260905180511 97 355 1.0 4.0 0.00 0.01 0.00 49 1013.4
20260905180012 97 44 0.0 5.0 0.00 0.01 0.00 49 1013.5
20260905175510 98 45 1.0 5.0 0.00 0.01 0.00 47 1013.7
20260905175009 100 325 2.0 6.0 0.00 0.01 0.00 45 1013.7
20260905174510 101 332 1.0 6.0 0.00 0.01 0.00 44 1013.8
20260905174010 102 307 3.0 5.0 0.00 0.01 0.00 44 1014.0
20260905173509 102 315 2.0 5.0 0.00 0.01 0.00 43 1014.0
20260905173007 101 218 0.0 4.0 0.00 0.01 0.00 44 1013.9
20260905172505 100 197 0.0 3.0 0.00 0.01 0.00 46 1013.9
20260905172005 97 275 1.0 5.0 0.00 0.01 0.00 49 1014.1
20260905171504 96 129 2.0 5.0 0.00 0.01 0.00 49 1014.1
20260905171005 96 17 1.0 5.0 0.00 0.01 0.00 48 1014.1
20260905170504 96 21 2.0 5.0 0.00 0.01 0.00 52 1014.1
20260905170008 95 111 2.0 3.0 0.00 0.01 0.00 51 1014.2
20260905165504 94 80 1.0 3.0 0.00 0.13 0.00 53 1014.2
20260905165003 94 103 2.0 3.0 0.00 0.13 0.00 53 1014.3
20260905164502 94 5 1.0 3.0 0.00 0.13 0.00 55 1014.4
20260905164003 93 84 1.0 2.0 0.00 0.13 0.00 54 1014.4
20260905163504 93 329 0.0 2.0 0.00 0.13 0.00 58 1014.5
20260905163003 93 329 0.0 2.0 0.00 0.13 0.00 57 1014.5
20260905162501 94 329 0.0 2.0 0.00 0.13 0.00 57 1014.5
20260905162002 94 329 0.0 2.0 0.00 0.13 0.00 56 1014.5
20260905161502 94 329 0.0 2.0 0.00 0.13 0.00 57 1014.5
20260905161002 95 329 1.0 3.0 0.00 0.13 0.00 55 1014.4
20260905160501 96 327 1.0 3.0 0.00 0.13 0.00 54 1014.4
20260905160006 96 327 1.0 4.0 0.00 0.13 0.00 55 1014.3
20260905155501 96 327 1.0 4.0 0.00 0.13 0.00 53 1014.4
20260905155001 97 323 1.0 3.0 0.00 0.13 0.00 52 1014.4
20260905154501 98 323 1.0 3.0 0.00 0.13 0.00 52 1014.5
20260905154001 99 323 1.0 3.0 0.00 0.13 0.00 51 1014.4
20260905153604 100 327 1.0 4.0 0.00 0.13 0.00 52 1014.5
20260905153059 99 327 1.0 4.0 0.00 0.13 0.00 54 1014.4
20260905152558 98 5 2.0 4.0 0.00 0.13 0.00 56 1014.4
20260905152056 97 321 1.0 4.0 0.00 0.13 0.00 59 1014.4
20260905151555 96 266 0.0 3.0 0.00 0.13 0.00 62 1014.5
20260905151054 94 261 0.0 3.0 0.00 0.13 0.00 63 1014.5
20260905150554 93 196 0.0 3.0 0.00 0.13 0.00 66 1014.5
20260905150052 91 194 0.0 3.0 0.00 0.13 0.00 68 1014.5
20260905145552 91 195 0.0 3.0 0.00 0.13 0.00 67 1014.5
20260905145051 92 195 1.0 3.0 0.00 0.13 0.00 66 1014.5
20260905144550 92 195 0.0 2.0 0.00 0.13 0.00 68 1014.5
20260905144048 92 195 0.0 2.0 0.00 0.13 0.00 68 1014.5
20260905143548 91 196 0.0 0.0 0.00 0.13 0.00 70 1014.5
20260905143046 90 196 0.0 0.0 0.00 0.13 0.00 71 1014.4
20260905142548 89 194 0.0 0.0 0.00 0.13 0.00 74 1014.4
20260905142045 88 194 0.0 0.0 0.00 0.13 0.00 74 1014.4
20260905141545 89 196 0.0 0.0 0.00 0.13 0.00 73 1014.4
20260905141044 89 196 0.0 0.0 0.00 0.13 0.00 73 1014.4
20260905140543 89 196 0.0 0.0 0.00 0.13 0.00 73 1014.3
20260905140042 89 196 0.0 0.0 0.00 0.13 0.00 75 1014.3
20260905135543 87 188 0.0 0.0 0.00 0.13 0.00 77 1014.2
20260905135038 87 188 0.0 0.0 0.00 0.13 0.00 79 1014.2
20260905134537 86 188 0.0 0.0 0.00 0.13 0.00 80 1014.2
20260905134035 85 188 0.0 0.0 0.00 0.13 0.00 82 1014.3
20260905133533 84 188 0.0 0.0 0.00 0.13 0.00 84 1014.3
20260905133032 83 188 0.0 0.0 0.00 0.13 0.00 86 1014.2
20260905132531 82 188 0.0 0.0 0.00 0.13 0.00 89 1014.2
20260905132031 81 188 0.0 0.0 0.00 0.13 0.00 90 1014.3
20260905131528 80 188 0.0 0.0 0.00 0.13 0.00 91 1014.2
20260905131027 79 188 0.0 0.0 0.00 0.13 0.00 92 1014.2
20260905130529 79 188 0.0 0.0 0.00 0.13 0.00 93 1014.1
20260905130026 78 188 0.0 0.0 0.00 0.13 0.00 93 1014.1
20260905125526 78 188 0.0 2.0 0.00 0.13 0.00 93 1014.0
20260905125026 77 188 0.0 2.0 0.00 0.13 0.00 93 1014.0
20260905124525 77 188 0.0 0.0 0.00 0.13 0.00 93 1013.9
20260905124025 77 188 0.0 0.0 0.00 0.13 0.00 93 1013.8
20260905123523 76 188 0.0 0.0 0.00 0.13 0.00 92 1013.7
20260905123023 76 188 0.0 0.0 0.00 0.13 0.00 92 1013.7
20260905122524 76 188 0.0 0.0 0.00 0.13 0.00 92 1013.7
20260905122028 76 188 0.0 0.0 0.00 0.13 0.00 92 1013.7
20260905121522 76 188 0.0 0.0 0.00 0.13 0.00 92 1013.7
20260905121021 76 188 0.0 0.0 0.00 0.13 0.00 92 1013.6
20260905120521 76 188 0.0 0.0 0.00 0.13 0.00 91 1013.5
20260905120035 76 188 0.0 0.0 0.00 0.13 0.00 91 1013.5
20260905115519 76 188 0.0 0.0 0.00 0.14 0.00 91 1013.4
20260905115020 76 188 0.0 0.0 0.00 0.14 0.00 91 1013.3
20260905114518 76 188 0.0 0.0 0.00 0.14 0.00 91 1013.2
20260905114019 76 188 0.0 0.0 0.00 0.14 0.00 91 1013.2
20260905113523 76 188 0.0 0.0 0.00 0.14 0.00 91 1013.1
20260905113018 76 188 0.0 0.0 0.00 0.14 0.00 91 1013.0
20260905112519 76 188 0.0 0.0 0.00 0.14 0.00 91 1013.0
20260905112018 76 188 0.0 0.0 0.00 0.14 0.00 91 1013.0
20260905111525 76 188 0.0 0.0 0.00 0.14 0.00 91 1013.0
20260905111018 76 188 0.0 0.0 0.00 0.14 0.00 91 1012.9
20260905110521 76 188 0.0 0.0 0.00 0.14 0.00 91 1012.9
20260905110021 76 188 0.0 0.0 0.00 0.14 0.00 91 1012.8
20260905105519 76 188 0.0 0.0 0.00 0.14 0.00 91 1012.8
20260905105019 76 188 0.0 0.0 0.00 0.14 0.00 91 1012.8
20260905104516 77 188 0.0 0.0 0.00 0.14 0.00 91 1012.7
20260905104016 77 188 0.0 0.0 0.00 0.14 0.00 91 1012.7
20260905103518 77 188 0.0 0.0 0.00 0.14 0.00 91 1012.6
20260905103023 77 188 0.0 0.0 0.00 0.14 0.00 91 1012.7
20260905102515 77 188 0.0 0.0 0.00 0.14 0.00 90 1012.7
20260905102015 77 188 0.0 0.0 0.00 0.14 0.00 91 1012.8
20260905101515 77 188 0.0 0.0 0.00 0.14 0.00 90 1012.8
20260905101014 77 188 0.0 0.0 0.00 0.14 0.00 90 1012.9
20260905100514 77 188 0.0 0.0 0.00 0.14 0.00 90 1012.8
20260905100014 77 188 0.0 0.0 0.00 0.14 0.00 90 1012.7
20260905095513 77 188 0.0 0.0 0.00 0.14 0.00 90 1012.7
20260905095017 77 188 0.0 0.0 0.00 0.14 0.00 90 1012.7
20260905094515 77 188 0.0 0.0 0.00 0.14 0.00 90 1012.7
20260905094017 77 188 0.0 0.0 0.00 0.14 0.00 90 1012.6
20260905093513 77 188 0.0 0.0 0.00 0.14 0.00 90 1012.6
20260905093013 77 188 0.0 0.0 0.00 0.14 0.00 90 1012.6
20260905092512 77 188 0.0 0.0 0.00 0.14 0.00 89 1012.7
20260905092012 77 188 0.0 0.0 0.00 0.14 0.00 89 1012.7
20260905091512 77 188 0.0 0.0 0.00 0.14 0.00 89 1012.7
20260905091012 77 188 0.0 0.0 0.00 0.14 0.00 89 1012.7
20260905090511 77 188 0.0 0.0 0.00 0.14 0.00 89 1012.6
20260905090011 77 188 0.0 0.0 0.00 0.14 0.00 89 1012.6
20260905085509 77 188 0.0 0.0 0.00 0.14 0.00 89 1012.6
20260905085010 77 188 0.0 0.0 0.00 0.14 0.00 89 1012.6
20260905084509 77 188 0.0 0.0 0.00 0.14 0.00 89 1012.6
20260905084010 77 188 0.0 0.0 0.00 0.14 0.00 89 1012.5
20260905083513 77 188 0.0 0.0 0.00 0.14 0.00 89 1012.4
20260905083010 77 188 0.0 0.0 0.00 0.14 0.00 89 1012.5
20260905082508 77 188 0.0 0.0 0.00 0.14 0.00 89 1012.5
20260905082008 77 188 0.0 0.0 0.00 0.14 0.00 88 1012.6
20260905081507 77 188 0.0 0.0 0.00 0.14 0.00 88 1012.7
20260905081007 78 188 0.0 0.0 0.00 0.14 0.00 88 1012.7
20260905080510 78 188 0.0 0.0 0.00 0.14 0.00 88 1012.7
20260905080006 78 188 0.0 0.0 0.00 0.14 0.00 88 1012.6
20260905075507 78 188 0.0 0.0 0.00 0.14 0.00 88 1012.6
20260905075008 78 188 0.0 0.0 0.00 0.14 0.00 88 1012.6
20260905074506 78 188 0.0 0.0 0.00 0.14 0.00 88 1012.7
20260905074004 78 188 0.0 0.0 0.00 0.14 0.00 88 1012.8
20260905073504 78 188 0.0 0.0 0.00 0.14 0.00 88 1012.8
20260905073003 78 188 0.0 0.0 0.00 0.14 0.00 88 1012.9
20260905072504 78 188 0.0 0.0 0.00 0.14 0.00 88 1013.0
20260905072002 78 188 0.0 0.0 0.00 0.14 0.00 88 1013.1
20260905071502 78 188 0.0 0.0 0.00 0.14 0.00 88 1013.1
20260905071001 79 188 0.0 0.0 0.00 0.14 0.00 88 1013.1
20260905070501 79 188 0.0 0.0 0.00 0.14 0.00 88 1013.1
20260905065600 79 188 0.0 0.0 0.00 0.14 0.00 88 1013.2
20260905065103 79 188 0.0 0.0 0.00 0.14 0.00 88 1013.1
20260905064621 79 188 0.0 0.0 0.00 0.14 0.00 88 1013.0
20260905064058 79 188 0.0 0.0 0.00 0.14 0.00 88 1013.0
20260905063557 79 188 0.0 0.0 0.00 0.14 0.00 88 1013.1
20260905063101 79 188 0.0 0.0 0.00 0.14 0.00 88 1013.2
20260905062556 79 188 0.0 0.0 0.00 0.14 0.00 88 1013.3
20260905062056 79 188 0.0 0.0 0.00 0.14 0.00 88 1013.4
20260905061556 79 188 0.0 0.0 0.00 0.14 0.00 88 1013.3
20260905061055 79 188 0.0 0.0 0.00 0.14 0.00 88 1013.4
20260905060554 79 188 0.0 0.0 0.00 0.14 0.00 88 1013.4
20260905060055 79 188 0.0 0.0 0.00 0.14 0.00 88 1013.3
20260905055556 79 188 0.0 0.0 0.00 0.14 0.00 88 1013.3
20260905055154 79 188 0.0 0.0 0.00 0.14 0.00 88 1013.4
20260905054554 79 188 0.0 0.0 0.00 0.14 0.00 88 1013.4
20260905054056 80 188 0.0 0.0 0.00 0.14 0.00 88 1013.3
20260905053552 80 188 0.0 0.0 0.00 0.14 0.00 87 1013.4
20260905053052 80 188 0.0 0.0 0.00 0.14 0.00 87 1013.4
20260905052551 80 188 0.0 0.0 0.00 0.14 0.00 87 1013.4
20260905052050 80 188 0.0 0.0 0.00 0.14 0.00 87 1013.4
20260905051550 80 188 0.0 0.0 0.00 0.14 0.00 87 1013.4
20260905051048 80 188 0.0 0.0 0.00 0.14 0.00 86 1013.3
20260905050548 80 188 0.0 0.0 0.00 0.14 0.00 86 1013.4
20260905050054 80 188 0.0 0.0 0.00 0.14 0.00 86 1013.4
20260905045546 80 188 0.0 0.0 0.00 0.14 0.14 86 1013.4
20260905045046 80 188 0.0 0.0 0.00 0.14 0.14 86 1013.4
20260905044547 80 188 0.0 0.0 0.00 0.14 0.14 85 1013.4
20260905044049 81 188 0.0 3.0 0.00 0.14 0.14 85 1013.5
20260905043548 81 188 0.0 3.0 0.00 0.14 0.14 85 1013.4
20260905043046 81 188 0.0 2.0 0.00 0.14 0.14 85 1013.5
20260905042545 81 188 0.0 1.0 0.00 0.14 0.14 85 1013.5
20260905042046 81 188 0.0 1.0 0.00 0.14 0.14 84 1013.6
20260905041551 81 188 0.0 2.0 0.00 0.14 0.14 84 1013.6
20260905041045 81 188 0.0 2.0 0.00 0.14 0.14 84 1013.5
20260905040545 81 188 0.0 2.0 0.00 0.14 0.14 84 1013.5
20260905040045 81 188 0.0 4.0 0.00 0.14 0.14 83 1013.6
20260905035544 81 188 0.0 4.0 0.00 0.14 0.14 83 1013.7
20260905035045 81 170 0.0 6.0 0.00 0.14 0.14 83 1013.6
20260905034544 81 170 1.0 7.0 0.00 0.14 0.14 83 1013.7
20260905034048 81 171 0.0 7.0 0.00 0.14 0.14 83 1013.6
20260905033544 81 161 2.0 5.0 0.00 0.14 0.14 83 1013.7
20260905033044 81 167 2.0 6.0 0.00 0.14 0.14 83 1013.6
20260905032544 81 162 2.0 6.0 0.00 0.14 0.14 83 1013.6
20260905032044 81 146 2.0 6.0 0.00 0.14 0.14 82 1013.7
20260905031545 82 161 1.0 5.0 0.00 0.14 0.14 82 1013.7
20260905031043 82 160 1.0 5.0 0.00 0.14 0.14 82 1013.8
20260905030543 82 170 0.0 3.0 0.00 0.14 0.14 82 1013.8
20260905030043 82 170 1.0 3.0 0.00 0.14 0.14 81 1013.9
20260905025545 82 170 0.0 3.0 0.00 0.14 0.14 81 1013.8
20260905025043 82 170 0.0 3.0 0.00 0.14 0.14 80 1013.7
20260905024548 82 169 1.0 3.0 0.00 0.14 0.14 80 1013.6
20260905024042 82 169 1.0 3.0 0.00 0.14 0.14 79 1013.6
20260905023543 82 169 0.0 3.0 0.00 0.14 0.14 79 1013.5
20260905023042 82 169 1.0 4.0 0.00 0.14 0.14 78 1013.5
20260905022542 82 169 1.0 3.0 0.00 0.14 0.14 78 1013.4
20260905022042 82 169 1.0 2.0 0.00 0.14 0.14 77 1013.3
20260905021544 82 169 1.0 3.0 0.00 0.14 0.14 77 1013.3
20260905021041 82 169 1.0 3.0 0.00 0.14 0.14 77 1013.2
20260905020541 82 169 1.0 3.0 0.00 0.14 0.14 76 1013.1
20260905020041 82 170 0.0 2.0 0.00 0.14 0.14 76 1013.0
20260905015541 82 170 0.0 2.0 0.00 0.14 0.14 76 1013.1
20260905015043 82 170 0.0 4.0 0.00 0.14 0.14 75 1013.0